Date,TemperatureHighF,TemperatureAvgF,TemperatureLowF,DewpointHighF,DewpointAvgF,DewpointLowF,HumidityHigh,HumidityAvg,HumidityLow,PressureMaxIn,PressureMinIn,WindSpeedMaxMPH,WindSpeedAvgMPH,GustSpeedMaxMPH,PrecipitationSumIn
2013-12-1,43.3,34.3,25.3,32.1,28.9,23.6,94,81,64,30.12,29.86,4,0,0,0.00
2013-12-2,47.1,38.1,32.4,39.6,33.5,28.7,96,83,75,29.86,29.49,10,3,0,0.00
2013-12-3,46.9,40.2,35.6,42.9,38.9,35.1,99,95,86,29.56,29.44,5,2,0,0.00
2013-12-4,39.2,38.7,38.3,38.9,38.4,38.0,99,99,99,29.55,29.51,2,0,0,0.00
2013-12-5,18.0,14.3,9.3,9.3,7.1,3.3,81,73,67,30.33,30.10,12,6,0,0.00
2013-12-6,12.0,7.6,2.8,3.9,1.1,-2.5,83,74,63,30.60,30.31,8,5,0,0.00
2013-12-7,14.0,5.9,-3.1,4.0,-1.0,-6.5,85,73,55,30.73,30.46,7,2,0,0.00
2013-12-8,20.3,16.1,11.5,17.6,12.1,3.6,94,84,68,30.44,29.92,7,3,0,0.00
2013-12-9,15.1,5.9,-1.1,13.4,0.7,-5.2,93,79,63,30.24,29.98,8,4,0,0.00
2013-12-10,22.8,17.0,2.5,14.8,8.7,-2.8,79,70,53,30.15,29.94,12,4,0,0.00
2013-12-11,20.5,7.0,-3.3,16.7,1.3,-6.9,91,77,60,30.56,30.13,14,4,0,0.00
2013-12-12,29.3,16.8,0.7,18.0,9.4,-3.5,90,73,59,30.47,30.06,7,2,0,0.00
2013-12-13,34.2,23.8,13.1,27.9,20.1,11.0,93,86,77,30.05,29.86,8,2,0,0.00
2013-12-14,25.2,19.7,13.3,22.2,16.7,10.4,93,88,82,30.08,29.93,9,5,0,0.00
2013-12-15,19.4,14.8,10.0,12.3,9.6,6.4,87,80,68,30.07,29.96,8,2,0,0.00
2013-12-16,24.6,18.0,13.1,20.5,14.8,10.0,92,87,80,30.05,29.94,6,2,0,0.00
2013-12-17,37.0,28.5,21.6,29.3,20.7,15.2,92,74,49,30.14,30.00,18,5,0,0.00
2013-12-18,23.5,21.2,18.9,16.2,15.0,13.8,80,77,73,30.11,29.95,5,1,0,0.00
2013-12-19,39.2,34.1,30.0,33.6,31.3,29.0,96,90,80,29.71,29.65,5,3,0,0.00
2013-12-20,29.7,23.6,22.3,28.7,22.1,20.3,97,94,92,29.80,29.70,8,4,0,0.00
2013-12-21,26.1,23.6,21.0,25.4,21.7,18.9,97,92,89,29.80,29.61,7,3,0,0.00
2013-12-22,26.1,19.7,6.1,25.4,17.0,2.6,97,89,82,30.24,29.62,10,6,0,0.00
2013-12-23,5.9,0.9,-6.2,1.9,-5.4,-12.3,86,74,61,30.50,30.24,10,5,0,0.00
2013-12-24,15.8,1.3,-15.2,14.1,-4.6,-18.4,93,76,59,30.50,30.14,7,2,0,0.00
2013-12-25,32.5,24.6,16.2,28.6,21.3,14.5,95,87,79,30.17,30.06,9,4,0,0.00
2013-12-26,40.5,27.7,17.4,28.7,21.8,14.6,91,79,61,30.16,30.00,9,2,0,0.01
2013-12-27,47.5,33.2,18.3,31.2,25.6,17.1,96,75,52,30.18,29.99,9,2,0,0.00
2013-12-28,48.6,40.1,30.7,33.7,31.2,27.3,89,71,55,29.99,29.70,18,3,0,0.00
2013-12-29,29.8,10.2,-0.8,26.7,3.9,-7.3,89,75,56,30.27,29.81,17,9,0,0.00
2013-12-30,15.4,7.0,-4.0,12.3,2.1,-8.8,91,80,70,30.26,30.05,5,1,0,0.00
2013-12-31,15.6,9.4,3.7,9.8,5.6,1.4,91,84,73,30.26,30.08,7,3,0,0.00